[[{"header":{"parameterUnit":"m.s-1","parameterCategory":1,"la1":30.2991,"la2":30.254,"lo1":-89.0895,"lo2":-89.0444,"dy":0.0017,"dx":0.0017,"nx":28,"ny":28,"refTime":"2025-03-22T21:00:00:Z","depth":0,"parameterNumber":2,"parameterNumberName":"U-component_of_WINDS"},"data":[0,0,0,0,0,0,0,0,0,0,0,0,0,0,0,0,0,0,0,0,0,0,0,0,0,0,0,0,0,0,0,0,0,0,0,0,0,0,0,0,0,0,0,0,0,0,0,0,0,0,0,0,0,0,0,0,0,0,0.2484,0.2484,0,0.2533,0.2534,0.2534,0.2528,0.2527,0.2526,0.2525,0.2579,0.2581,0.2583,0,0,0,0,0,0,0,0,0,0,0,0,0,0.2387,0.2389,0.2484,0.2484,0.2485,0.2533,0.2534,0.2534,0.2528,0.2527,0.2526,0.2525,0.2578,0.2581,0.2583,0,0,0,0,0,0,0,0,0,0,0,0,0,0.2432,0.239,0.2484,0.2487,0.2488,0.2533,0.2534,0.2535,0.2528,0.2527,0.2526,0.2524,0.2577,0.258,0.2584,0.2628,0,0,0.2594,0.2595,0,0,0,0,0,0,0,0,0.243,0.2436,0.2486,0.2487,0.2488,0.2523,0.2519,0.2566,0.2528,0.2513,0.2525,0.2524,0.2561,0.2566,0.2578,0.2631,0.2633,0.2594,0.2596,0.2597,0.2598,0,0,0,0,0,0,0,0.2426,0.2434,0.2503,0.2487,0.2488,0.2488,0.2493,0.2528,0.2544,0.2514,0.2514,0.252,0.2562,0.2575,0.2579,0.2634,0.2594,0.2597,0.2599,0.26,0.2729,0.2731,0,0,0,0,0,0,0.2422,0.2431,0.2502,0.2505,0.2455,0.2491,0.2496,0.2513,0.2543,0.2546,0.2521,0.2519,0.257,0.2575,0.2581,0.2638,0.2597,0.26,0.2602,0.2728,0.273,0.2731,0,0,0,0,0,0,0.242,0.2428,0.25,0.2468,0.2477,0.2493,0.2513,0.2515,0.2528,0.2548,0.2551,0.2531,0.2569,0.2576,0.2617,0.264,0.2602,0.2605,0.2726,0.2728,0.273,0.2751,0,0,0,0,0,0,0.2417,0.2428,0.2444,0.2468,0.2479,0.2534,0.2514,0.2517,0.2533,0.2532,0.2558,0.2562,0.2569,0.2612,0.262,0.2643,0.2607,0.2724,0.2727,0.273,0.2748,0.2753,0.2758,0,0,0,0,0,0.2414,0.2448,0.2445,0.2453,0.2499,0.2535,0.2541,0.2548,0.2535,0.2552,0.2566,0.2561,0.2635,0.2616,0.2626,0.265,0.2723,0.2726,0.273,0.2746,0.2752,0.2757,0,0,0,0,0,0,0.2426,0.2451,0.2448,0.249,0.2511,0.2534,0.2556,0.2554,0.2579,0.2577,0.2584,0.259,0.2632,0.2645,0.2623,0.2696,0.2678,0.2683,0.2687,0.2693,0.2698,0.2695,0.261,0,0,0,0,0,0.2434,0.246,0.248,0.2516,0.2526,0.254,0.2555,0.2559,0.258,0.2589,0.2605,0.2628,0.2656,0.2675,0.2702,0.2749,0.2756,0.277,0.2775,0.2779,0.2784,0.2813,0.282,0.2742,0.2742,0.2742,0,0,0.245,0.2467,0.2483,0.2519,0.2535,0.2564,0.2547,0.2577,0.2599,0.2594,0.2634,0.2647,0.2672,0.2717,0.2737,0.2729,0.2807,0.2783,0.2786,0.2789,0.2817,0.2824,0.2831,0.2744,0.2744,0.2744,0,0,0.2495,0.2509,0.2541,0.2558,0.2582,0.2591,0.2599,0.2623,0.2631,0.2671,0.2668,0.2695,0.2743,0.2762,0.2778,0.2831,0.2829,0.284,0.2866,0.2893,0.29,0.2905,0.2927,0.2934,0.2844,0.2844,0.2844,0,0.2512,0.2554,0.2558,0.259,0.2607,0.2603,0.2637,0.2653,0.2686,0.2698,0.2687,0.2749,0.2766,0.2816,0.2829,0.2841,0.2853,0.2838,0.2898,0.2904,0.2909,0.293,0.2938,0.2846,0.2846,0.2845,0.2845,0,0.2576,0.2605,0.2628,0.266,0.2679,0.2712,0.2723,0.2742,0.2743,0.2754,0.2796,0.2815,0.2848,0.2859,0.2861,0.2911,0.2905,0.2896,0.2878,0.2918,0.2938,0.2945,0.2848,0.2847,0.2847,0.2846,0,0,0.2631,0.2664,0.2673,0.2688,0.2715,0.2739,0.2772,0.2803,0.2821,0.2843,0.2873,0.2914,0.2906,0.2924,0.2928,0.2952,0.2996,0.2941,0.2941,0.2953,0.3056,0.3064,0.3073,0.2994,0.2995,0.2997,0.3055,0,0.268,0.2738,0.2743,0.2796,0.2824,0.2821,0.285,0.2871,0.2882,0.2909,0.292,0.2951,0.2937,0.2948,0.2972,0.2986,0.3018,0.2982,0.3024,0.3026,0.3021,0.3083,0.3092,0.3146,0.3062,0.3063,0.3064,0,0.2745,0.277,0.2826,0.2851,0.2863,0.2889,0.2919,0.2943,0.2968,0.2974,0.2995,0.2996,0.3032,0.301,0.3061,0.3037,0.3054,0.3064,0.3066,0.3073,0.3049,0.3094,0.3163,0.3172,0.3076,0.3075,0.3074,0,0.2783,0.283,0.287,0.2883,0.2912,0.2931,0.2944,0.2967,0.2986,0.3012,0.3025,0.3055,0.3072,0.3096,0.3106,0.3089,0.3158,0.3137,0.3166,0.3166,0.3183,0.3182,0.3258,0.319,0.3189,0.3189,0.3189,0,0.2839,0.2874,0.2888,0.2913,0.2952,0.2958,0.2998,0.301,0.3031,0.3059,0.3058,0.3085,0.3095,0.3124,0.3132,0.3175,0.3181,0.3189,0.3192,0.3191,0.3191,0.3205,0.3202,0.3191,0.3191,0.3191,0.319,0,0.2889,0.2899,0.2943,0.2967,0.2974,0.3003,0.3024,0.3049,0.3059,0.3096,0.3104,0.3121,0.3155,0.3167,0.3208,0.3214,0.3265,0.3262,0.3257,0.3258,0.3288,0.3286,0.3378,0.3392,0.3311,0.3312,0.3313,0,0.2926,0.2952,0.298,0.2998,0.3012,0.3042,0.3062,0.3069,0.309,0.312,0.3142,0.3176,0.3204,0.3259,0.3276,0.3308,0.3308,0.3338,0.3313,0.3313,0.3312,0.3312,0.3316,0.3344,0.3345,0.3345,0.3346,0,0.299,0.2994,0.3022,0.3052,0.3075,0.3099,0.3122,0.3138,0.3149,0.3173,0.3207,0.3229,0.3272,0.3307,0.334,0.3355,0.3354,0.3353,0.3362,0.3364,0.336,0.3366,0.3273,0.3352,0.3351,0.3351,0.335,0.335,0.3036,0.3061,0.3085,0.3116,0.3134,0.3156,0.3182,0.3195,0.3224,0.3259,0.3262,0.3301,0.3326,0.337,0.3387,0.3418,0.341,0.3423,0.3426,0.343,0.3434,0.3353,0.3424,0.3424,0.3424,0.3424,0.3424,0,0.3103,0.3118,0.3147,0.318,0.3205,0.32,0.3226,0.3248,0.3282,0.3305,0.3332,0.3374,0.3408,0.3427,0.3461,0.3483,0.3483,0.3492,0.3492,0.3496,0.3438,0.3428,0.3492,0.3492,0.3491,0.3491,0.3491,0.3491,0.3141,0.3183,0.319,0.3242,0.3257,0.3295,0.3311,0.3332,0.3351,0.3397,0.3425,0.3437,0.3459,0.3496,0.3527,0.3532,0.3546,0.3557,0.3561,0.3507,0.35,0.3493,0.3484,0.3559,0.3559,0.3617,0.3618,0.3618]},{"header":{"parameterUnit":"m.s-1","parameterCategory":1,"la1":30.2991,"la2":30.254,"lo1":-89.0895,"lo2":-89.0444,"dy":0.0017,"dx":0.0017,"nx":28,"ny":28,"refTime":"2025-03-22T21:00:00:Z","depth":0,"parameterNumber":3,"parameterNumberName":"V-component_of_WINDS"},"data":[0,0,0,0,0,0,0,0,0,0,0,0,0,0,0,0,0,0,0,0,0,0,0,0,0,0,0,0,0,0,0,0,0,0,0,0,0,0,0,0,0,0,0,0,0,0,0,0,0,0,0,0,0,0,0,0,0,0,0.4193,0.4192,0,0.4141,0.414,0.414,0.4107,0.4106,0.4106,0.4106,0.4052,0.4051,0.405,0,0,0,0,0,0,0,0,0,0,0,0,0,0.4264,0.4263,0.4193,0.4192,0.4192,0.4141,0.414,0.414,0.4107,0.4106,0.4106,0.4106,0.4053,0.4051,0.405,0,0,0,0,0,0,0,0,0,0,0,0,0,0.4225,0.4263,0.4193,0.4169,0.4167,0.4141,0.414,0.4139,0.4107,0.4106,0.4106,0.4106,0.4053,0.4051,0.405,0.4044,0,0,0.4044,0.4043,0,0,0,0,0,0,0,0,0.4227,0.4222,0.4173,0.4171,0.4168,0.413,0.4146,0.4107,0.4107,0.4129,0.4106,0.4106,0.4078,0.4074,0.4065,0.4042,0.4039,0.4044,0.4043,0.4042,0.4041,0,0,0,0,0,0,0,0.423,0.4224,0.4172,0.4173,0.4169,0.4161,0.4155,0.4138,0.4106,0.4127,0.4125,0.4119,0.4077,0.4067,0.4064,0.4038,0.4044,0.4042,0.4041,0.404,0.4009,0.4009,0,0,0,0,0,0,0.4237,0.4227,0.4174,0.4171,0.4197,0.416,0.4153,0.4142,0.4106,0.41,0.4119,0.4118,0.4071,0.4066,0.4062,0.4054,0.4042,0.404,0.4039,0.4008,0.4009,0.4009,0,0,0,0,0,0,0.4238,0.4232,0.4176,0.4198,0.419,0.4159,0.4147,0.4142,0.4132,0.41,0.4094,0.4116,0.407,0.4064,0.4049,0.4052,0.4039,0.4038,0.4008,0.4008,0.4009,0.4037,0,0,0,0,0,0,0.424,0.4233,0.423,0.4198,0.4189,0.4164,0.4147,0.4141,0.4129,0.4126,0.4095,0.409,0.4069,0.4052,0.4047,0.4049,0.4036,0.4008,0.4008,0.4009,0.4036,0.4039,0.4041,0,0,0,0,0,0.4243,0.424,0.423,0.4224,0.4186,0.4164,0.4159,0.4136,0.4129,0.4126,0.4106,0.4091,0.4052,0.4051,0.4045,0.4046,0.4007,0.4008,0.4009,0.4035,0.4038,0.4041,0,0,0,0,0,0,0.4273,0.4235,0.4224,0.4211,0.4191,0.4159,0.4155,0.414,0.4122,0.412,0.4092,0.4086,0.4073,0.4058,0.4057,0.4039,0.4028,0.4027,0.405,0.4053,0.4055,0.4059,0.4035,0,0,0,0,0,0.4278,0.4264,0.4232,0.4223,0.4214,0.4186,0.4176,0.416,0.4138,0.413,0.4109,0.4088,0.4072,0.4061,0.4044,0.4034,0.4027,0.4032,0.4034,0.4036,0.4036,0.4031,0.4033,0.4011,0.4011,0.4011,0,0,0.4288,0.4266,0.4259,0.4229,0.4211,0.4198,0.4179,0.4165,0.4155,0.4128,0.4112,0.4096,0.4071,0.4059,0.4052,0.4046,0.4041,0.4037,0.4039,0.4038,0.4032,0.4034,0.4036,0.4011,0.4011,0.4011,0,0,0.43,0.4281,0.4273,0.4256,0.4231,0.4212,0.421,0.418,0.4169,0.4153,0.4132,0.4119,0.4091,0.4075,0.4063,0.407,0.4055,0.4065,0.4078,0.4073,0.4075,0.4076,0.408,0.4081,0.4065,0.4065,0.4065,0,0.4316,0.4294,0.427,0.4258,0.4246,0.422,0.4212,0.4197,0.4167,0.4159,0.4152,0.4117,0.4098,0.4082,0.4084,0.4075,0.4072,0.4068,0.4076,0.4078,0.4079,0.4082,0.4083,0.4066,0.4066,0.4066,0.4066,0,0.4316,0.4302,0.4298,0.427,0.4257,0.4247,0.4221,0.4211,0.4197,0.4179,0.4164,0.4141,0.4119,0.4114,0.4099,0.4096,0.4093,0.4082,0.407,0.4083,0.4085,0.4086,0.4068,0.4068,0.4068,0.4067,0,0,0.4345,0.4305,0.4304,0.4291,0.4262,0.425,0.4239,0.4218,0.4211,0.4191,0.4182,0.4158,0.4148,0.4135,0.4118,0.4113,0.4122,0.4102,0.4101,0.4108,0.4118,0.4128,0.413,0.4112,0.4112,0.4112,0.4121,0,0.4353,0.4332,0.431,0.4297,0.4284,0.426,0.425,0.4231,0.4215,0.4202,0.4183,0.4168,0.4155,0.4147,0.4141,0.4122,0.4124,0.4121,0.4103,0.4103,0.4111,0.4131,0.4141,0.415,0.4122,0.4122,0.4122,0,0.436,0.4342,0.4328,0.43,0.4294,0.4286,0.4266,0.4253,0.4231,0.422,0.4205,0.4188,0.4175,0.4165,0.4147,0.4146,0.4137,0.4127,0.4127,0.4125,0.4114,0.4131,0.4153,0.4155,0.4123,0.4123,0.4123,0,0.4384,0.4356,0.4344,0.4334,0.4302,0.4297,0.4283,0.4261,0.425,0.4233,0.4226,0.4206,0.4196,0.4182,0.416,0.4154,0.4146,0.4133,0.4137,0.4137,0.4137,0.4137,0.4159,0.4129,0.4129,0.4129,0.4129,0,0.4396,0.4388,0.4355,0.4348,0.4339,0.4314,0.4306,0.429,0.4271,0.426,0.4238,0.4229,0.42,0.4188,0.417,0.4159,0.4155,0.4145,0.4141,0.4148,0.4149,0.4143,0.4142,0.413,0.413,0.413,0.4129,0,0.4421,0.4398,0.4384,0.4355,0.4348,0.4343,0.4318,0.431,0.4293,0.428,0.4276,0.4248,0.4233,0.4209,0.4186,0.4174,0.4167,0.4159,0.4174,0.4172,0.4178,0.4178,0.4197,0.4198,0.4167,0.4167,0.4168,0,0.4431,0.4425,0.4395,0.4387,0.4374,0.4361,0.435,0.4325,0.4315,0.4291,0.4286,0.4269,0.4254,0.423,0.4208,0.4191,0.4183,0.4191,0.418,0.4188,0.4185,0.4186,0.4186,0.4194,0.4194,0.4194,0.4195,0,0.4451,0.444,0.4425,0.4407,0.4395,0.438,0.4363,0.4357,0.4329,0.4319,0.4303,0.4291,0.4268,0.4252,0.4232,0.4217,0.4202,0.4198,0.4198,0.4206,0.4216,0.4212,0.4183,0.4198,0.4198,0.4197,0.4197,0.4197,0.4469,0.4463,0.4442,0.4427,0.4412,0.4397,0.4389,0.4371,0.4357,0.4337,0.4323,0.4308,0.4288,0.4259,0.4246,0.4234,0.4227,0.4227,0.4227,0.4228,0.4231,0.4217,0.423,0.423,0.423,0.423,0.423,0,0.4489,0.4474,0.4461,0.4439,0.4427,0.4413,0.4394,0.4386,0.4373,0.4355,0.4341,0.4323,0.4307,0.4285,0.4267,0.4262,0.4255,0.4259,0.4259,0.4257,0.4237,0.424,0.4265,0.4265,0.4265,0.4265,0.4265,0.4265,0.4498,0.4487,0.4475,0.4457,0.4442,0.4428,0.4418,0.4405,0.4391,0.4372,0.4359,0.4344,0.4325,0.4306,0.4291,0.4285,0.428,0.4287,0.4278,0.4261,0.4258,0.4255,0.4257,0.4285,0.4285,0.4299,0.4299,0.4299]}]]